Regional Weather Roundup
Issued by NWS

Home | Current Version | Previous Version | Text Only | Print | Product List | Glossary Off
Versions: 1 2 3 4 5 6 7 8 9 10 11 12 13 14 15 16 17 18 19 20 21 22 23 24 25 26 27 28 29 30 31 32 33 34 35 36 37 38 39 40 41 42 43 44 45 46 47 48 49 50

000
ASUS43 KFSD 221410
RWRSD

WEATHER ROUNDUP FOR SOUTH DAKOTA
NATIONAL WEATHER SERVICE SIOUX FALLS SD
900 AM CDT TUE AUG 22 2017

NOTE: "FAIR" INDICATES FEW OR NO CLOUDS BELOW 12,000 FEET WITH NO
SIGNIFICANT WEATHER AND/OR OBSTRUCTIONS TO VISIBILITY.


SDZ001>005-009-010-012>017-221500-
NORTHWEST AND NORTH CENTRAL SOUTH DAKOTA

CITY           SKY/WX    TMP DP  RH WIND       PRES   REMARKS
BUFFALO          N/A     56  44  64 CALM      30.18R
FAITH            N/A     60  50  69 SW5       30.24R
MOBRIDGE       MOSUNNY   56  50  80 N5        30.19R
$$

SDZ012>016-024>037-041>051-057-063-072>074-221500-
SOUTHWEST AND SOUTH CENTRAL SOUTH DAKOTA

CITY           SKY/WX    TMP DP  RH WIND       PRES   REMARKS
RAPID CTY ARPT SUNNY     58  43  57 SE5       30.25S
PIERRE         SUNNY     61  51  70 CALM      30.21R
CUSTER         SUNNY     57  40  52 VRB5      30.34S
ELLSWORTH AFB  SUNNY     60  42  51 S7        30.24R
PHILIP         SUNNY     56  46  69 CALM      30.24R
SPEARFISH      FAIR      59  41  51 CALM      30.26S
WINNER         FAIR      60  53  77 W6        30.24R
$$

SDZ004>011-016>023-039-040-221500-
NORTHEAST SOUTH DAKOTA

CITY           SKY/WX    TMP DP  RH WIND       PRES   REMARKS
ABERDEEN       MOSUNNY   59  48  67 W7        30.17R
WATERTOWN      SUNNY     60  52  74 NW10      30.15R
BROOKINGS      SUNNY     58  53  84 NW3       30.17R
SISSETON         N/A     64  50  60 W9        30.11R
$$

SDZ017-020-022-023-036>040-048>070-221500-
SOUTHEAST SOUTH DAKOTA

CITY           SKY/WX    TMP DP  RH WIND       PRES   REMARKS
SIOUX FALLS    MOSUNNY   63  55  75 W6        30.17R
HURON          SUNNY     55  50  83 W7        30.19R
CHAMBERLAIN    SUNNY     61  54  77 W6        30.22S
MITCHELL       SUNNY     59  51  75 NW5       30.20R
YANKTON        SUNNY     59  54  83 NW10      30.20R
$$

ABBREVIATIONS USED IN REMARKS
   TC - TEMPERATURE IN CELSIUS
  WCI - WIND CHILL INDEX
   HX - HEAT INDEX
  VSB - VISIBILITY




USA.gov is the U.S. government's official web portal to all federal, state and local government web resources and services.